�������l�o���
Date,Time,MP-1(��Sv/h),MP-2(��Sv/h),MP-3(��Sv/h),MP-4(��Sv/h),MP-5(��Sv/h),MP-6(��Sv/h),MP-7(��Sv/h),MP-8(��Sv/h),����,����(m/s),���J
2018/07/02,00:00,0.913,1.294,0.902,1.625,1.150,0.482,0.846,0.802,�k�k��,1.7,��
2018/07/02,00:10,0.914,1.296,0.903,1.625,1.147,0.484,0.845,0.803,�k,1.7,��
2018/07/02,00:20,0.914,1.295,0.904,1.622,1.148,0.483,0.848,0.801,�k�k��,1.7,��
2018/07/02,00:30,0.913,1.297,0.902,1.627,1.150,0.482,0.847,0.804,�k,1.2,��
2018/07/02,00:40,0.913,1.293,0.906,1.624,1.151,0.483,0.846,0.802,�k�k��,1.5,��
2018/07/02,00:50,0.914,1.296,0.906,1.625,1.151,0.484,0.848,0.802,�k��,1.7,��
2018/07/02,01:00,0.913,1.296,0.907,1.626,1.150,0.483,0.847,0.802,���k��,2.3,��
2018/07/02,01:10,0.913,1.293,0.904,1.627,1.152,0.485,0.847,0.803,�k��,2.5,��
2018/07/02,01:20,0.911,1.296,0.904,1.625,1.148,0.482,0.848,0.801,�k�k��,2.3,��
2018/07/02,01:30,0.914,1.292,0.905,1.623,1.151,0.483,0.847,0.801,�k�k��,1.9,��
2018/07/02,01:40,0.912,1.294,0.907,1.624,1.148,0.483,0.845,0.802,�k,1.5,��
2018/07/02,01:50,0.911,1.293,0.902,1.625,1.149,0.481,0.847,0.800,�k�k��,1.2,��
2018/07/02,02:00,0.911,1.295,0.905,1.623,1.148,0.483,0.847,0.801,�k�k��,2.0,��
2018/07/02,02:10,0.912,1.295,0.903,1.624,1.149,0.482,0.847,0.800,�k,1.9,��
2018/07/02,02:20,0.911,1.296,0.903,1.625,1.146,0.483,0.845,0.803,�k,1.5,��
2018/07/02,02:30,0.913,1.296,0.903,1.625,1.149,0.482,0.847,0.803,�k,1.5,��
2018/07/02,02:40,0.912,1.297,0.902,1.623,1.149,0.482,0.846,0.800,�k�k��,1.2,��
2018/07/02,02:50,0.912,1.294,0.905,1.624,1.147,0.483,0.845,0.802,-,CALM,��
2018/07/02,03:00,0.912,1.295,0.903,1.623,1.149,0.482,0.847,0.800,-,CALM,��
2018/07/02,03:10,0.915,1.294,0.903,1.623,1.149,0.482,0.846,0.801,��쐼,0.9,��
2018/07/02,03:20,0.915,1.292,0.902,1.623,1.149,0.483,0.847,0.802,�쐼,1.9,��
2018/07/02,03:30,0.912,1.293,0.906,1.623,1.148,0.481,0.845,0.801,�쐼,1.2,��
2018/07/02,03:40,0.913,1.293,0.902,1.622,1.147,0.484,0.847,0.801,�쐼,1.4,��
2018/07/02,03:50,0.912,1.294,0.904,1.619,1.146,0.482,0.847,0.801,�쐼,2.5,��
2018/07/02,04:00,0.911,1.294,0.905,1.622,1.149,0.484,0.846,0.801,�쐼,2.3,��
2018/07/02,04:10,0.913,1.292,0.903,1.625,1.148,0.483,0.848,0.803,�쐼,2.2,��
2018/07/02,04:20,0.911,1.293,0.902,1.623,1.148,0.483,0.846,0.800,��,1.1,��
2018/07/02,04:30,0.912,1.294,0.902,1.622,1.146,0.481,0.846,0.802,�쐼,0.8,��
2018/07/02,04:40,0.912,1.293,0.904,1.622,1.148,0.482,0.847,0.801,�쐼,0.9,��
2018/07/02,04:50,0.912,1.295,0.903,1.623,1.149,0.482,0.847,0.801,�쐼,1.1,��
2018/07/02,05:00,0.911,1.294,0.903,1.624,1.148,0.482,0.846,0.803,���쐼,1.2,��
2018/07/02,05:10,0.910,1.292,0.905,1.622,1.147,0.482,0.845,0.802,��쐼,1.2,��
2018/07/02,05:20,0.911,1.295,0.904,1.626,1.148,0.484,0.847,0.800,��쐼,1.1,��
2018/07/02,05:30,0.911,1.295,0.903,1.624,1.149,0.481,0.846,0.801,��쐼,1.2,��
2018/07/02,05:40,0.909,1.292,0.903,1.623,1.148,0.483,0.846,0.801,�쐼,1.5,��
2018/07/02,05:50,0.911,1.293,0.902,1.622,1.150,0.482,0.847,0.802,�쐼,1.2,��
2018/07/02,06:00,0.910,1.295,0.905,1.622,1.148,0.482,0.846,0.802,��쐼,1.5,��
2018/07/02,06:10,0.910,1.292,0.903,1.624,1.147,0.483,0.847,0.802,�쐼,1.2,��
2018/07/02,06:20,0.911,1.294,0.904,1.623,1.149,0.484,0.847,0.803,��,1.1,��
2018/07/02,06:30,0.912,1.294,0.905,1.622,1.147,0.483,0.847,0.801,���쐼,1.2,��
2018/07/02,06:40,0.914,1.293,0.904,1.625,1.148,0.485,0.847,0.802,��,1.2,��
2018/07/02,06:50,0.913,1.295,0.904,1.623,1.148,0.483,0.848,0.801,���k��,0.8,��
2018/07/02,07:00,0.913,1.289,0.906,1.623,1.147,0.484,0.849,0.803,-,CALM,��
2018/07/02,07:10,0.914,1.290,0.903,1.623,1.150,0.483,0.849,0.804,-,CALM,��
2018/07/02,07:20,0.912,1.293,0.903,1.623,1.147,0.484,0.847,0.802,�k��,0.9,��
2018/07/02,07:30,0.911,1.293,0.903,1.621,1.150,0.484,0.849,0.801,-,CALM,��
2018/07/02,07:40,0.914,1.292,0.902,1.621,1.149,0.484,0.846,0.804,�k�k��,0.6,��
2018/07/02,07:50,0.913,1.294,0.905,1.623,1.148,0.481,0.847,0.803,-,CALM,��
2018/07/02,08:00,0.912,1.294,0.900,1.622,1.147,0.482,0.848,0.805,���쓌,0.9,��
2018/07/02,08:10,0.910,1.293,0.901,1.621,1.145,0.483,0.847,0.803,���쓌,0.8,��
2018/07/02,08:20,0.911,1.293,0.902,1.622,1.150,0.483,0.851,0.800,-,CALM,��
2018/07/02,08:30,0.910,1.291,0.903,1.624,1.148,0.483,0.849,0.799,��,0.6,��
2018/07/02,08:40,0.910,1.295,0.901,1.624,1.148,0.483,0.847,0.801,��,1.1,��
2018/07/02,08:50,0.909,1.289,0.902,1.623,1.147,0.483,0.847,0.800,���k��,0.9,��
2018/07/02,09:00,0.911,1.290,0.902,1.625,1.150,0.481,0.848,0.800,���k��,1.2,��
2018/07/02,09:10,0.912,1.292,0.903,1.624,1.149,0.481,0.848,0.800,���k��,0.9,��
2018/07/02,09:20,0.909,1.290,0.902,1.623,1.150,0.483,0.850,0.801,��,1.2,��
2018/07/02,09:30,0.907,1.294,0.903,1.624,1.149,0.483,0.850,0.799,���k��,1.2,��
2018/07/02,09:40,0.910,1.295,0.903,1.627,1.151,0.482,0.848,0.801,���k��,1.7,��
2018/07/02,09:50,0.909,1.293,0.903,1.626,1.147,0.482,0.849,0.802,���k��,1.7,��
2018/07/02,10:00,0.911,1.294,0.903,1.626,1.152,0.483,0.848,0.800,��,1.7,��
2018/07/02,10:10,0.912,1.293,0.903,1.626,1.148,0.483,0.847,0.799,��,1.5,��
2018/07/02,10:20,0.911,1.297,0.905,1.626,1.150,0.483,0.847,0.801,���쓌,2.0,��
2018/07/02,10:30,0.911,1.296,0.905,1.624,1.152,0.484,0.848,0.801,���쓌,2.3,��
2018/07/02,10:40,0.912,1.298,0.904,1.626,1.152,0.482,0.848,0.802,���쓌,1.9,��
2018/07/02,10:50,0.915,1.297,0.904,1.627,1.151,0.482,0.847,0.803,���쓌,2.0,��
2018/07/02,11:00,0.913,1.299,0.903,1.630,1.154,0.483,0.848,0.801,���쓌,2.6,��
2018/07/02,11:10,0.913,1.299,0.904,1.624,1.153,0.482,0.849,0.801,��,2.3,��
2018/07/02,11:20,0.913,1.297,0.903,1.623,1.155,0.483,0.848,0.802,���쓌,2.5,��
2018/07/02,11:30,0.912,1.301,0.904,1.624,1.154,0.482,0.846,0.801,���쓌,3.0,��
2018/07/02,11:40,0.913,1.300,0.906,1.625,1.156,0.482,0.846,0.801,�쓌,3.2,��
2018/07/02,11:50,0.914,1.300,0.905,1.624,1.154,0.483,0.847,0.801,�쓌,3.5,��
2018/07/02,12:00,0.912,1.294,0.904,1.626,1.156,0.482,0.847,0.803,�쓌,3.9,��
2018/07/02,12:10,0.914,1.300,0.905,1.624,1.156,0.483,0.847,0.801,�쓌,4.0,��
2018/07/02,12:20,0.908,1.296,0.906,1.624,1.155,0.481,0.848,0.802,�쓌,4.4,��
2018/07/02,12:30,0.914,1.300,0.908,1.628,1.159,0.482,0.848,0.802,�쓌,4.1,��
2018/07/02,12:40,0.915,1.294,0.903,1.629,1.156,0.483,0.848,0.801,�쓌,4.6,��
2018/07/02,12:50,0.913,1.297,0.906,1.627,1.157,0.483,0.846,0.801,�쓌,4.0,��
2018/07/02,13:00,0.916,1.295,0.906,1.627,1.156,0.481,0.849,0.802,�쓌,4.2,��
2018/07/02,13:10,0.915,1.295,0.906,1.626,1.156,0.483,0.847,0.802,�쓌,4.2,��
2018/07/02,13:20,0.914,1.296,0.908,1.628,1.157,0.482,0.846,0.801,�쓌,3.9,��
2018/07/02,13:30,0.915,1.295,0.909,1.629,1.157,0.482,0.848,0.803,�쓌,4.1,��
2018/07/02,13:40,0.915,1.294,0.910,1.629,1.160,0.484,0.847,0.804,�쓌,4.2,��
2018/07/02,13:50,0.912,1.291,0.909,1.627,1.156,0.483,0.849,0.804,�쓌,4.0,��
2018/07/02,14:00,0.913,1.295,0.908,1.630,1.160,0.484,0.850,0.803,�쓌,4.4,��
2018/07/02,14:10,0.913,1.293,0.910,1.629,1.158,0.485,0.849,0.806,�쓌,4.2,��
2018/07/02,14:20,0.914,1.296,0.908,1.628,1.158,0.484,0.851,0.804,�쓌,4.9,��
2018/07/02,14:30,0.914,1.295,0.907,1.632,1.158,0.484,0.852,0.805,�쓌,4.9,��
2018/07/02,14:40,0.913,1.296,0.908,1.634,1.159,0.485,0.850,0.805,�쓌,5.0,��
2018/07/02,14:50,0.913,1.299,0.909,1.633,1.159,0.484,0.852,0.803,�쓌,5.3,��
2018/07/02,15:00,0.914,1.297,0.909,1.631,1.159,0.485,0.850,0.804,�쓌,4.8,��
2018/07/02,15:10,0.915,1.298,0.908,1.632,1.161,0.483,0.852,0.804,��쓌,5.4,��
2018/07/02,15:20,0.915,1.296,0.907,1.633,1.157,0.484,0.851,0.803,��쓌,4.9,��
2018/07/02,15:30,0.914,1.297,0.911,1.633,1.157,0.485,0.851,0.803,��쓌,5.4,��
2018/07/02,15:40,0.914,1.296,0.907,1.633,1.158,0.483,0.853,0.804,��,6.1,��
2018/07/02,15:50,0.913,1.298,0.909,1.634,1.160,0.483,0.853,0.804,��쓌,5.3,��
2018/07/02,16:00,0.912,1.296,0.908,1.634,1.160,0.486,0.854,0.803,��,5.0,��
2018/07/02,16:10,0.914,1.296,0.909,1.634,1.160,0.483,0.852,0.803,��,6.1,��
2018/07/02,16:20,0.914,1.299,0.910,1.633,1.160,0.482,0.851,0.805,��,5.2,��
2018/07/02,16:30,0.914,1.300,0.908,1.634,1.159,0.483,0.852,0.804,��쓌,6.3,��
2018/07/02,16:40,0.914,1.300,0.909,1.634,1.159,0.483,0.852,0.803,��쓌,7.4,��
2018/07/02,16:50,0.914,1.299,0.907,1.635,1.157,0.484,0.850,0.804,��쓌,6.6,��
2018/07/02,17:00,0.914,1.298,0.907,1.631,1.159,0.484,0.849,0.803,��,6.4,��
2018/07/02,17:10,0.916,1.296,0.909,1.635,1.156,0.482,0.851,0.804,��,5.9,��
2018/07/02,17:20,0.913,1.298,0.908,1.631,1.159,0.482,0.850,0.802,��,5.4,��
2018/07/02,17:30,0.914,1.299,0.910,1.629,1.155,0.483,0.849,0.802,��,5.4,��
2018/07/02,17:40,0.914,1.300,0.907,1.633,1.157,0.484,0.848,0.803,��쓌,6.8,��
2018/07/02,17:50,0.915,1.299,0.908,1.632,1.155,0.481,0.848,0.804,��,6.2,��
2018/07/02,18:00,0.913,1.299,0.908,1.632,1.157,0.481,0.849,0.804,��,5.8,��
2018/07/02,18:10,0.913,1.301,0.907,1.632,1.157,0.481,0.849,0.803,��,5.6,��
2018/07/02,18:20,0.912,1.299,0.910,1.633,1.158,0.480,0.848,0.803,��,4.6,��
2018/07/02,18:30,0.911,1.298,0.908,1.633,1.155,0.482,0.849,0.801,��,4.6,��
2018/07/02,18:40,0.910,1.299,0.908,1.632,1.157,0.483,0.848,0.802,��,4.9,��
2018/07/02,18:50,0.912,1.294,0.909,1.631,1.156,0.483,0.849,0.802,��,4.4,��
2018/07/02,19:00,0.910,1.299,0.908,1.632,1.156,0.482,0.848,0.802,��,4.3,��
2018/07/02,19:10,0.913,1.298,0.907,1.630,1.158,0.482,0.849,0.802,��,3.7,��
2018/07/02,19:20,0.911,1.299,0.906,1.630,1.155,0.483,0.848,0.804,��쐼,1.4,��
2018/07/02,19:30,0.913,1.297,0.909,1.633,1.158,0.483,0.849,0.804,��쐼,2.0,��
2018/07/02,19:40,0.912,1.298,0.908,1.630,1.158,0.483,0.848,0.800,��쐼,2.0,��
2018/07/02,19:50,0.912,1.300,0.909,1.631,1.158,0.484,0.848,0.802,��쐼,1.9,��
2018/07/02,20:00,0.912,1.302,0.909,1.632,1.158,0.484,0.850,0.803,��쐼,2.2,��
2018/07/02,20:10,0.914,1.300,0.906,1.632,1.160,0.484,0.850,0.803,�쐼,1.9,��
2018/07/02,20:20,0.911,1.298,0.906,1.633,1.155,0.484,0.850,0.803,��쐼,2.0,��
2018/07/02,20:30,0.913,1.298,0.908,1.633,1.156,0.483,0.848,0.802,��쐼,1.5,��
2018/07/02,20:40,0.913,1.298,0.909,1.629,1.158,0.485,0.848,0.801,��쐼,1.5,��
2018/07/02,20:50,0.914,1.300,0.908,1.634,1.158,0.486,0.847,0.803,��쐼,1.4,��
2018/07/02,21:00,0.913,1.297,0.908,1.632,1.158,0.483,0.850,0.802,��쐼,1.7,��
2018/07/02,21:10,0.912,1.300,0.909,1.635,1.154,0.486,0.848,0.803,��쐼,2.0,��
2018/07/02,21:20,0.911,1.302,0.908,1.633,1.157,0.484,0.849,0.802,��쐼,2.5,��
2018/07/02,21:30,0.913,1.296,0.907,1.630,1.157,0.485,0.850,0.801,��쐼,2.3,��
2018/07/02,21:40,0.913,1.296,0.908,1.633,1.157,0.486,0.850,0.803,��쐼,1.9,��
2018/07/02,21:50,0.912,1.296,0.907,1.633,1.159,0.484,0.849,0.801,��쐼,1.7,��
2018/07/02,22:00,0.914,1.298,0.908,1.632,1.157,0.484,0.849,0.802,��,0.8,��
2018/07/02,22:10,0.912,1.297,0.909,1.633,1.155,0.483,0.849,0.802,��쓌,1.4,��
2018/07/02,22:20,0.914,1.298,0.906,1.631,1.157,0.484,0.849,0.802,��,1.5,��
2018/07/02,22:30,0.914,1.298,0.908,1.634,1.155,0.485,0.849,0.804,��,1.4,��
2018/07/02,22:40,0.915,1.299,0.908,1.630,1.157,0.484,0.849,0.805,��,1.7,��
2018/07/02,22:50,0.915,1.298,0.911,1.632,1.155,0.485,0.848,0.803,��쐼,2.2,��
2018/07/02,23:00,0.916,1.298,0.909,1.633,1.156,0.485,0.849,0.805,���쐼,2.0,��
2018/07/02,23:10,0.916,1.300,0.912,1.632,1.157,0.486,0.849,0.803,���쐼,1.2,��
2018/07/02,23:20,0.917,1.298,0.909,1.636,1.156,0.486,0.849,0.803,�쐼,0.6,��
2018/07/02,23:30,0.915,1.298,0.909,1.634,1.159,0.485,0.849,0.804,-,CALM,��
2018/07/02,23:40,0.913,1.300,0.908,1.632,1.156,0.486,0.851,0.803,�쓌,0.6,��
2018/07/02,23:50,0.914,1.298,0.910,1.630,1.157,0.486,0.849,0.805,���쐼,0.6,��
